(2020 KP6) |
Classification: Apollo [NEO] SPK-ID: 54017290 |
[ hide orbit diagram ]
For accurate long-term ephemerides, please instead use our Horizons system.This orbit viewer was implemented using two-body methods, and hence should not be used for determining accurate long-term trajectories (over several years or decades) or planetary encounter circumstances.
Orbital Elements at Epoch 2459000.5 (2020-May-31.0) TDB
Reference: JPL 10 (heliocentric ecliptic J2000)
Element | Value | Uncertainty (1-sigma) | Units |
e | .5227661295112908 | 8.1963e-05 | |
a | 2.003894623242242 | 0.00033085 | au |
q | .956326387101409 | 6.3534e-06 | au |
i | 9.430755735531873 | 0.001019 | deg |
node | 83.46087057429975 | 9.2429e-05 | deg |
peri | 214.9372574799564 | 9.3829e-05 | deg |
M | 345.0203481759208 | 0.0039984 | deg |
tp | 2459043.613170851651 (2020-Jul-13.11317085) | 0.00083103 | TDB |
period | 1036.12164614171 2.84 | 0.2566 0.0007025 | d yr |
n | .3474495502922473 | 8.6047e-05 | deg/d |
Q | 3.051462859383075 | 0.0005038 | au |
|
| | Orbit Determination Parameters
Additional Information
|
[ show covariance matrix ]
Physical Parameter Table
Parameter |
Symbol |
Value |
Units |
Sigma |
Reference |
Notes |
absolute magnitude |
H |
24.8 |
|
.33788 |
E2020N58 |
autocmod 2.8 |
|
[ show close-approach data ]
|